Location: Belmont
(13.0833°N, 59.6000°W)
Time: 22:32:35
(UTC+00:00)

ASTEX 1 - Pass Details

Date: 17 September 2019
Orbit: 720 x 744 km, 92.7° (Epoch: 21 October)

Event Time Altitude Azimuth Distance (km) Brightness Sun altitude
Rises 23:12:22 0° 11° (N) 3,120 6.6 -18.8°
Reaches altitude 10° 23:14:39 10° 14° (NNE) 2,200 5.8 -19.4°
Maximum altitude 23:19:29 66° 96° (E) 784 3.2 -20.6°
Drops below altitude 10° 23:24:19 10° 178° (S) 2,207 5.8 -21.7°
Sets 23:26:37 0° 181° (S) 3,130 6.6 -22.3°
